UAECTP OMDW-KDFW

Flight info

Callsign UAECTP
Flight time N/A
Altitude 30000
Route SENPA N571 PURLI G462 TUMAK L602 RALKA G795 TASMI/N0495F320 L602 ALPET L718 KABAN UR21 SRT UM860 KUGOS/K0883F320 M860 KIV/K0878F340 M860 ROLKA/N0473F340 M860 EGLON L621 LUSID DCT DISGO T508 ROBUS L983 PETIL DCT DONIB N562 MIMKU/N0468F360 DCT PIKIL/M082F360 DCT 57N020W 58N030W 58N040W 57N050W DCT HOIST/N0474F380 N754B MT J545 YVO DCT ODAXY DCT VIO DCT ELANR DCT ARLYN/N0470F400 DCT STL DCT ZALDA Q27 FSM DCT KOMMA DCT RRNET SEEVR4
Aircraft B77L/H-SDE1E2E3FGHIJ2J3J4J5M1RWXY/LB1D1

Departure

Time 2026-04-24 12:28
Airport Al Maktoum International Airport (OMDW)

Arrival

Time N/A
Airport Dallas Fort Worth International Airport (KDFW)
Time Latitude Longitude Altitude Speed Heading
2026-04-24 11:37 24.89357 55.14390 165 ft 0 kts 303°
2026-04-24 11:41 24.89357 55.14391 165 ft 0 kts 303°
2026-04-24 11:47 24.89356 55.14391 165 ft 0 kts 303°
2026-04-24 11:51 24.89356 55.14392 165 ft 0 kts 303°
2026-04-24 12:04 24.89356 55.14393 165 ft 0 kts 303°
2026-04-24 12:09 24.89350 55.14402 165 ft 3 kts 303°
2026-04-24 12:10 24.89335 55.14426 165 ft 3 kts 305°
2026-04-24 12:10 24.89319 55.14450 165 ft 3 kts 306°
2026-04-24 12:10 24.89303 55.14474 165 ft 2 kts 308°
2026-04-24 12:11 24.89268 55.14519 165 ft 3 kts 315°
2026-04-24 12:11 24.89248 55.14539 166 ft 3 kts 331°
2026-04-24 12:11 24.89227 55.14545 166 ft 2 kts 28°
2026-04-24 12:11 24.89226 55.14545 166 ft 0 kts 31°
2026-04-24 12:12 24.89226 55.14544 166 ft 0 kts 31°
2026-04-24 12:14 24.89246 55.14559 166 ft 7 kts 32°
2026-04-24 12:14 24.89310 55.14603 165 ft 15 kts 31°
2026-04-24 12:15 24.89408 55.14668 164 ft 15 kts 31°
2026-04-24 12:15 24.89469 55.14709 164 ft 8 kts 31°
2026-04-24 12:15 24.89515 55.14739 164 ft 8 kts 31°
2026-04-24 12:15 24.89569 55.14775 164 ft 11 kts 30°
2026-04-24 12:16 24.89650 55.14829 163 ft 16 kts 31°
2026-04-24 12:16 24.89757 55.14900 163 ft 20 kts 31°
2026-04-24 12:16 24.89866 55.14974 163 ft 11 kts 32°
2026-04-24 12:16 24.89871 55.14978 163 ft 0 kts 32°
2026-04-24 12:17 24.89877 55.14982 163 ft 4 kts 32°
2026-04-24 12:17 24.89910 55.15054 163 ft 13 kts 104°
2026-04-24 12:17 24.89849 55.15169 163 ft 22 kts 121°
2026-04-24 12:17 24.89795 55.15267 166 ft 23 kts 120°
2026-04-24 12:18 24.89735 55.15375 163 ft 10 kts 121°
2026-04-24 12:18 24.89687 55.15460 163 ft 11 kts 121°
2026-04-24 12:18 24.89639 55.15547 163 ft 15 kts 121°
2026-04-24 12:18 24.89600 55.15616 163 ft 16 kts 121°
2026-04-24 12:19 24.89545 55.15717 163 ft 15 kts 121°
2026-04-24 12:19 24.89490 55.15818 163 ft 15 kts 122°
2026-04-24 12:19 24.89432 55.15921 163 ft 18 kts 121°
2026-04-24 12:19 24.89348 55.16073 163 ft 28 kts 121°
2026-04-24 12:20 24.89234 55.16277 163 ft 29 kts 121°
2026-04-24 12:20 24.89139 55.16449 162 ft 25 kts 121°
2026-04-24 12:20 24.89076 55.16563 163 ft 17 kts 121°
2026-04-24 12:20 24.89014 55.16675 163 ft 17 kts 121°
2026-04-24 12:21 24.88952 55.16788 162 ft 17 kts 121°
2026-04-24 12:21 24.88891 55.16898 163 ft 17 kts 121°
2026-04-24 12:21 24.88830 55.17007 163 ft 16 kts 121°
2026-04-24 12:21 24.88776 55.17105 163 ft 15 kts 121°
2026-04-24 12:22 24.88722 55.17202 163 ft 15 kts 121°
2026-04-24 12:22 24.88668 55.17299 163 ft 15 kts 122°
2026-04-24 12:22 24.88613 55.17397 162 ft 15 kts 122°
2026-04-24 12:22 24.88577 55.17498 162 ft 15 kts 69°
2026-04-24 12:23 24.88653 55.17561 162 ft 12 kts 31°
2026-04-24 12:23 24.88698 55.17590 162 ft 5 kts 30°
2026-04-24 12:23 24.88707 55.17594 162 ft 1 kts 22°
2026-04-24 12:23 24.88732 55.17601 162 ft 6 kts 13°
2026-04-24 12:24 24.88788 55.17604 162 ft 10 kts 358°
2026-04-24 12:24 24.88853 55.17564 163 ft 12 kts 310°
2026-04-24 12:24 24.88864 55.17546 163 ft 0 kts 302°
2026-04-24 12:26 24.88867 55.17541 163 ft 6 kts 302°
2026-04-24 12:26 24.88987 55.17326 163 ft 61 kts 301°
2026-04-24 12:27 24.89304 55.16758 161 ft 112 kts 302°
2026-04-24 12:27 24.89788 55.15881 163 ft 154 kts 300°
2026-04-24 12:27 24.90436 55.14787 168 ft 184 kts 313°
2026-04-24 12:27 24.91152 55.13613 365 ft 186 kts 297°
2026-04-24 12:28 24.91794 55.12354 508 ft 193 kts 302°
2026-04-24 12:28 24.92484 55.11010 726 ft 208 kts 305°
2026-04-24 12:28 24.93250 55.09629 908 ft 216 kts 302°
2026-04-24 12:28 24.94032 55.08200 1150 ft 219 kts 303°
2026-04-24 12:29 24.94821 55.06770 1511 ft 219 kts 303°
2026-04-24 12:29 24.95552 55.05289 1710 ft 226 kts 286°
2026-04-24 12:29 24.95470 55.03576 1779 ft 233 kts 246°
2026-04-24 12:29 24.94538 55.02114 1999 ft 235 kts 224°
2026-04-24 12:30 24.93168 55.01095 2045 ft 243 kts 207°
2026-04-24 12:30 24.91634 55.00171 1969 ft 258 kts 202°
2026-04-24 12:30 24.89955 54.99914 2005 ft 264 kts 166°
2026-04-24 12:30 24.88326 55.00850 2133 ft 269 kts 131°
2026-04-24 12:31 24.87250 55.02547 2348 ft 272 kts 120°
2026-04-24 12:31 24.85997 55.04116 2485 ft 280 kts 152°
2026-04-24 12:31 24.84160 55.04655 2921 ft 272 kts 186°
2026-04-24 12:31 24.82417 55.03998 3332 ft 266 kts 220°
2026-04-24 12:32 24.81257 55.02437 3609 ft 267 kts 243°
2026-04-24 12:32 24.80305 55.00693 4077 ft 266 kts 235°
2026-04-24 12:32 24.79205 54.99044 4620 ft 267 kts 234°
2026-04-24 12:32 24.78092 54.97424 5070 ft 271 kts 234°
2026-04-24 12:33 24.76952 54.95779 5621 ft 272 kts 234°
2026-04-24 12:33 24.75795 54.94147 6222 ft 271 kts 232°
2026-04-24 12:33 24.74632 54.92483 6622 ft 274 kts 234°
2026-04-24 12:33 24.73505 54.90798 7176 ft 274 kts 235°
2026-04-24 12:34 24.72379 54.89082 7628 ft 277 kts 234°
2026-04-24 12:34 24.71249 54.87391 8253 ft 271 kts 234°
2026-04-24 12:34 24.70129 54.85709 8707 ft 274 kts 234°
2026-04-24 12:34 24.68989 54.84025 9180 ft 275 kts 233°
2026-04-24 12:35 24.67851 54.82322 9594 ft 279 kts 233°
2026-04-24 12:35 24.66689 54.80593 9996 ft 283 kts 233°
2026-04-24 12:35 24.65498 54.78816 10187 ft 296 kts 233°
2026-04-24 12:35 24.64231 54.76924 10315 ft 312 kts 233°
2026-04-24 12:36 24.62933 54.74984 10455 ft 328 kts 233°
2026-04-24 12:36 24.61543 54.72907 10574 ft 345 kts 233°
2026-04-24 12:36 24.60088 54.70736 10735 ft 360 kts 233°
2026-04-24 12:36 24.58586 54.68496 11102 ft 368 kts 233°
2026-04-24 12:37 24.57051 54.66206 11557 ft 373 kts 233°
2026-04-24 12:37 24.55508 54.63905 12119 ft 376 kts 233°
2026-04-24 12:37 24.53957 54.61597 12689 ft 378 kts 233°
2026-04-24 12:37 24.52394 54.59268 13244 ft 381 kts 233°
2026-04-24 12:38 24.50818 54.56921 13731 ft 384 kts 234°
2026-04-24 12:38 24.49234 54.54547 14249 ft 385 kts 234°
2026-04-24 12:38 24.47637 54.52167 14796 ft 385 kts 234°
2026-04-24 12:39 24.42780 54.44977 15987 ft 399 kts 234°
2026-04-24 12:39 24.41120 54.42529 16498 ft 400 kts 234°
2026-04-24 12:39 24.39454 54.40066 17007 ft 403 kts 234°
2026-04-24 12:40 24.37778 54.37580 17391 ft 407 kts 234°
2026-04-24 12:40 24.36094 54.35074 17693 ft 413 kts 235°
2026-04-24 12:40 24.34372 54.32530 18142 ft 415 kts 234°
2026-04-24 12:40 24.32650 54.29986 18569 ft 416 kts 234°
2026-04-24 12:41 24.30925 54.27437 18963 ft 418 kts 234°
2026-04-24 12:41 24.29185 54.24864 19341 ft 420 kts 234°
2026-04-24 12:41 24.27444 54.22291 19728 ft 423 kts 234°
2026-04-24 12:41 24.25685 54.19692 20121 ft 424 kts 234°
2026-04-24 12:42 24.23925 54.17094 20531 ft 425 kts 234°
2026-04-24 12:42 24.22157 54.14486 20933 ft 427 kts 234°
2026-04-24 12:42 24.20382 54.11869 21328 ft 429 kts 234°
2026-04-24 12:42 24.18603 54.09248 21705 ft 430 kts 234°
2026-04-24 12:43 24.16815 54.06615 22085 ft 432 kts 234°
2026-04-24 12:43 24.15018 54.03969 22469 ft 434 kts 234°
2026-04-24 12:43 24.13211 54.01313 22838 ft 435 kts 234°
2026-04-24 12:43 24.11509 53.98810 23193 ft 436 kts 234°
2026-04-24 12:44 24.09700 53.96152 23571 ft 436 kts 234°
2026-04-24 12:44 24.07880 53.93480 23876 ft 438 kts 234°
2026-04-24 12:44 24.06060 53.90808 24129 ft 440 kts 234°
2026-04-24 12:44 24.04225 53.88115 24396 ft 442 kts 234°
2026-04-24 12:45 24.02378 53.85407 24679 ft 444 kts 234°
2026-04-24 12:45 24.00527 53.82696 24960 ft 446 kts 234°
2026-04-24 12:45 23.98669 53.79974 25248 ft 447 kts 234°
2026-04-24 12:45 23.96807 53.77248 25534 ft 449 kts 234°
2026-04-24 12:46 23.94934 53.74509 25815 ft 451 kts 234°
2026-04-24 12:46 23.93054 53.71760 26066 ft 453 kts 234°
2026-04-24 12:46 23.91160 53.68991 26329 ft 455 kts 234°
2026-04-24 12:46 23.89261 53.66218 26609 ft 457 kts 234°
2026-04-24 12:47 23.87361 53.63444 26874 ft 458 kts 234°
2026-04-24 12:47 23.85444 53.60647 27159 ft 460 kts 234°
2026-04-24 12:47 23.83524 53.57848 27407 ft 462 kts 234°
2026-04-24 12:47 23.81595 53.55037 27655 ft 464 kts 234°
2026-04-24 12:48 23.79657 53.52214 27903 ft 465 kts 234°
2026-04-24 12:48 23.77712 53.49384 28155 ft 467 kts 234°
2026-04-24 12:48 23.75758 53.46540 28390 ft 468 kts 234°
2026-04-24 12:48 23.73802 53.43696 28618 ft 470 kts 234°
2026-04-24 12:49 23.71838 53.40842 28841 ft 472 kts 234°
2026-04-24 12:49 23.69863 53.37974 29060 ft 473 kts 234°
2026-04-24 12:49 23.67877 53.35092 29273 ft 474 kts 234°
2026-04-24 12:49 23.65909 53.32224 29612 ft 473 kts 234°
2026-04-24 12:50 23.63940 53.29349 29917 ft 472 kts 234°
2026-04-24 12:50 23.59966 53.23610 29986 ft 473 kts 234°
2026-04-24 12:51 23.56029 53.17930 29984 ft 468 kts 234°
2026-04-24 12:51 23.52108 53.12262 29987 ft 468 kts 235°
2026-04-24 12:52 23.48192 53.06604 29976 ft 468 kts 235°
2026-04-24 12:52 23.44270 53.00946 29979 ft 468 kts 234°
2026-04-24 12:53 23.40503 52.95387 29975 ft 469 kts 238°
2026-04-24 12:53 23.37266 52.89223 29989 ft 470 kts 243°
2026-04-24 12:54 23.34102 52.82971 29982 ft 472 kts 242°
2026-04-24 12:54 23.30904 52.76727 29974 ft 474 kts 242°
2026-04-24 12:55 23.27679 52.70465 29986 ft 475 kts 242°
2026-04-24 12:55 23.24447 52.64196 29978 ft 475 kts 242°
2026-04-24 12:56 23.21215 52.57931 29977 ft 475 kts 242°
2026-04-24 12:56 23.18098 52.51615 29968 ft 474 kts 246°
2026-04-24 12:57 23.15867 52.44914 29984 ft 471 kts 252°
2026-04-24 12:57 23.13777 52.38163 29986 ft 470 kts 251°
2026-04-24 12:58 23.11650 52.31490 29924 ft 471 kts 251°
2026-04-24 12:58 23.09487 52.24722 29814 ft 470 kts 251°
2026-04-24 12:59 23.08778 52.22501 29802 ft 469 kts 251°